Torna al catalogo

DELTA 2 DEB

AttivoHEO
NORAD 26851·DEBRIS·🇺🇸 United States

Lanciato Sep 9, 1992 da Cape Canaveral Space Force Station

Loading…

Prossimi Passaggi (prossime 24 ore)

TLE

AggiornatoSource: Space-Track

Epoca: Sep 14, 2026, 01:32 UTC

1 26851U 92058E   26257.06430056  .00019448  00000-0  50568-3 0  9995
2 26851  34.8220 177.7099 3552217  79.2203 318.1327  8.34990252669885

Traccia DELTA 2 DEB in tempo reale con AllMySat

Download on the App Store